Weather in Jelenia Gora

Poland     50°52′01″N   15°40′47″E
temp.,
°C
wind,
m/s
gust,
m/s
humid.,
%
clouds,
%
prec.,
mm/h
press.,
hPa
HPBL,
m
10 august, wed
wed1023:00+12ne017711 0.0 102812
02:00+12wnw0174100 0.0 102712
05:00+12ne11757 0.0 102714
08:00+17ene12623 0.0 1027251
11:00+20ene33476 0.0 10271805
14:00+21ene434143 0.0 10262139
17:00+21ene334040 0.0 10252119
20:00+17ne116078 0.0 102516
11 august, thu
thu1123:00+13ne016691 0.0 102612
02:00+13ene016619 0.0 102511
05:00+12nw11675 0.0 102511
08:00+17ne125565 0.0 1024136
11:00+20ene344096 0.0 10241613
14:00+21ene4435100 0.0 10231897
17:00+21ne353715 0.0 10222023
20:00+16nne226134 0.0 102229
12 august, fri
fri1223:00+13ese016864 0.0 102313
02:00+13n11662 0.0 102218
05:00+12nne117417 0.0 102221
08:00+16ne386324 0.0 1022623
11:00+19ne585718 0.1 10211325
14:00+20ene475684 0.3 10201643
17:00+21e47493 0.1 10201616
20:00+18e115948 0.1 102015
13 august, sat
sat1323:00+14ne016843 0.0 102013
02:00+14nne0179100 0.0 102016
05:00+14nne1181100 0.0 101919
08:00+18nne2372100 0.0 1019163
11:00+22ne345023 0.1 10181369
14:00+24ne344761 0.1 10172092
17:00+19ne3672100 0.6 1017378
20:00+18nnw128196 1.5 101729
14 august, sun
sun1423:00+15nne229061 0.1 101740
02:00+15nne229522 0.1 101632
05:00+14n11966 0.0 101626
08:00+17nne228941 0.0 1016285
11:00+18ene248687 1.3 1016633
14:00+19ene247892 2.9 1015746
17:00+19ne138482 1.8 1014326
20:00+17ne118831 2.6 101416